Location: Key Biscayne
(25.6930°N, 80.1630°W)
Time: 15:12:14
(UTC-04:00)

Vanguard 2 - Visible Passes

Search period start: 18 June 2018 00:00
Search period end: 28 June 2018 00:00
Orbit: 553 x 2939 km, 32.9° (Epoch: 17 June)

Date Brightness Start Highest point End Pass type
(mag) Time Alt. Az. Time Alt. Az. Time Alt. Az.
18 Jun 10.0 03:06:49 14° ESE 03:06:49 14° ESE 03:07:42 10° E visible
18 Jun 7.4 05:08:13 24° WSW 05:11:47 89° NNW 05:16:06 10° ENE visible
19 Jun 9.3 03:23:36 28° ESE 03:23:36 28° ESE 03:26:17 10° E visible
19 Jun 7.6 05:25:00 15° W 05:29:53 63° NNW 05:34:08 10° ENE visible
20 Jun 8.4 03:40:20 51° ESE 03:40:20 51° ESE 03:44:35 10° ENE visible
20 Jun 8.1 05:42:21 10° W 05:48:02 47° NNW 05:52:08 10° ENE visible
21 Jun 7.9 03:57:01 75° SSW 03:57:29 80° SSE 04:02:43 10° ENE visible
21 Jun 8.4 06:00:59 10° W 06:06:15 38° NNW 06:10:11 10° ENE visible
22 Jun 10.4 02:12:16 12° E 02:12:16 12° E 02:12:42 10° E visible
22 Jun 7.9 04:13:39 49° W 04:15:37 78° NNW 04:20:45 10° ENE visible
23 Jun 9.8 02:28:51 24° E 02:28:51 24° E 02:31:04 10° ENE visible
23 Jun 8.2 04:30:14 30° W 04:33:47 60° NNW 04:38:46 10° ENE visible
24 Jun 9.1 02:45:22 43° E 02:45:22 43° E 02:49:15 10° ENE visible
24 Jun 8.5 04:46:45 18° W 04:51:59 49° NNW 04:56:48 10° ENE visible
25 Jun 8.5 03:01:49 73° ENE 03:01:49 73° ENE 03:07:20 10° ENE visible
25 Jun 8.7 05:03:16 10° W 05:10:16 43° N 05:14:52 10° ENE visible
25 Jun 11.5 22:46:43 10° S 22:46:56 10° S 22:46:56 10° S visible
26 Jun 10.7 01:16:50 12° E 01:16:50 12° E 01:17:16 10° ENE visible
26 Jun 8.6 03:18:12 67° WNW 03:19:05 73° NNW 03:25:23 10° ENE visible
26 Jun 8.8 05:21:57 10° WNW 05:28:35 40° N 05:33:03 10° ENE visible
26 Jun 11.3 23:02:56 10° SSW 23:05:21 15° SSW 23:05:21 15° SSW visible
27 Jun 10.2 01:33:06 24° ENE 01:33:06 24° ENE 01:35:32 10° ENE visible
27 Jun 8.8 03:34:27 42° WNW 03:37:20 61° NNW 03:43:25 10° ENE visible
27 Jun 8.7 05:40:33 10° WNW 05:46:56 41° N 05:51:17 10° ENE visible
27 Jun 11.1 21:15:20 10° SSE 21:21:59 13° SE 21:22:32 13° SE visible
27 Jun 11.2 23:19:49 10° SSW 23:24:06 19° SSW 23:24:06 19° SSW visible
